Change the Weather History Date:

Saturday, May 26, 2012

  Actual Average Record
Temperature  
Mean Temperature 44 °F 56 °F  
Max Temperature 49 °F 71 °F 89 °F (1958)
Min Temperature 38 °F 42 °F 29 °F (1975)
Degree Days  
Heating Degree Days 21 9  
Month to date heating degree days 290 312  
Since 1 July heating degree days 6448 7006  
Cooling Degree Days 0 0  
Month to date cooling degree days 4 0  
Year to date cooling degree days 4 0  
Moisture  
Dew Point 40 °F    
Average Humidity 88    
Maximum Humidity 93    
Minimum Humidity 82    
Precipitation  
Precipitation 0.57 in 0.04 in 0.70 in (1996)
Month to date precipitation 0.71 1.22  
Year to date precipitation 5.00 5.59  
Snow  
Snow 0.00 in - - ()
Month to date snowfall 0.0  
Since 1 July snowfall 15.8  
Snow Depth 0.00 in    
Sea Level Pressure  
Sea Level Pressure 29.65 in    
Wind  
Wind Speed 8 mph (NNE)    
Max Wind Speed 36 mph    
Max Gust Speed 46 mph    
Visibility 9 miles    
Events Rain    
T = Trace of Precipitation, MM = Missing Value Source: NWS Daily Summary

Daily Weather History Graph

Daily Weather History Graph

Search for Another Location

Airport or City:

Trip Planner

Search our weather history database for the weather conditions in past years. The results will help you decide how hot, cold, wet, or windy it might be!

Date:

Astronomy

May. 26, 2012 Rise Set
Actual Time 5:57 AM MDT 8:57 PM MDT
Civil Twilight 5:23 AM MDT 9:31 PM MDT
Nautical Twilight 4:40 AM MDT 10:15 PM MDT
Astronomical Twilight 3:49 AM MDT 11:06 PM MDT
Moon 11:06 AM MDT (5/26) 12:31 AM MDT (5/26)
Length of Visible Light 16h 08m
Length of Day
15h 00m
Waxing Crescent, 29% of the Moon is Illuminated
May 26
Waxing Crescent
May 28
First Quarter
Jun 4
Full
Jun 11
Last Quarter
Jun 19
New

Hourly Weather History & Observations

Time (MDT) Temp. Windchill Dew Point Humidity Pressure Visibility Wind Dir Wind Speed Gust Speed Precip Events Conditions
12:53 AM 45.0 °F 41.8 °F 42.1 °F 90% 29.62 in 10.0 mi NE 5.8 mph - 0.00 in Rain Light Rain
1:53 AM 45.0 °F 40.6 °F 41.0 °F 86% 29.59 in 10.0 mi NE 8.1 mph - 0.00 in   Overcast
2:53 AM 44.1 °F 39.0 °F 39.9 °F 85% 29.62 in 10.0 mi NNE 9.2 mph 17.3 mph N/A   Mostly Cloudy
3:14 AM 44.6 °F 38.4 °F 41.0 °F 87% 29.70 in 10.0 mi North 12.7 mph - 0.00 in Rain Light Rain
3:18 AM 44.6 °F 38.4 °F 39.2 °F 81% 29.69 in 10.0 mi North 12.7 mph - 0.00 in Rain Light Rain
3:53 AM 43.0 °F 36.8 °F 39.9 °F 89% 29.62 in 10.0 mi North 11.5 mph - 0.00 in   Scattered Clouds
4:53 AM 43.0 °F 36.4 °F 37.9 °F 82% 29.58 in 10.0 mi ENE 12.7 mph - N/A   Clear
5:53 AM 42.1 °F 35.7 °F 37.9 °F 85% 29.57 in 10.0 mi ENE 11.5 mph - N/A   Scattered Clouds
6:53 AM 42.1 °F 37.1 °F 39.0 °F 89% 29.60 in 10.0 mi North 8.1 mph - N/A   Scattered Clouds
7:53 AM 43.0 °F 37.2 °F 39.0 °F 86% 29.58 in 10.0 mi NNE 10.4 mph - N/A   Scattered Clouds
8:53 AM 44.1 °F 39.0 °F 39.0 °F 82% 29.58 in 10.0 mi NNE 9.2 mph - N/A   Mostly Cloudy
9:53 AM 45.0 °F 41.2 °F 39.9 °F 82% 29.57 in 10.0 mi NE 6.9 mph - 0.01 in Rain Light Rain
10:53 AM 45.0 °F 41.2 °F 42.1 °F 90% 29.57 in 4.0 mi ENE 6.9 mph - 0.02 in Rain Rain
11:53 AM 48.9 °F - 44.1 °F 83% 29.55 in 10.0 mi Calm Calm - 0.05 in Rain Light Rain
12:53 PM 48.9 °F - 45.0 °F 86% 29.57 in 5.0 mi SW 5.8 mph - 0.07 in Rain Rain
1:53 PM 46.9 °F - 44.1 °F 90% 29.59 in 3.0 mi WSW 15.0 mph 20.7 mph 0.08 in Rain Rain
2:53 PM 44.1 °F 36.8 °F 41.0 °F 89% 29.64 in 4.0 mi SW 16.1 mph 24.2 mph 0.12 in Rain Light Rain
3:53 PM 44.1 °F 38.1 °F 39.9 °F 85% 29.69 in 10.0 mi South 11.5 mph 18.4 mph 0.06 in Rain Light Rain
4:53 PM 46.0 °F 43.1 °F 41.0 °F 83% 29.68 in 10.0 mi NW 5.8 mph - 0.02 in   Mostly Cloudy
5:53 PM 46.0 °F 41.4 °F 41.0 °F 83% 29.67 in 10.0 mi East 9.2 mph - N/A   Mostly Cloudy
6:53 PM 45.0 °F 39.7 °F 39.9 °F 82% 29.67 in 10.0 mi NE 10.4 mph - N/A   Mostly Cloudy
7:46 PM 39.2 °F 30.2 °F 37.4 °F 93% 29.75 in 4.0 mi WSW 17.3 mph - 0.02 in Rain Light Rain
7:53 PM 39.9 °F 32.1 °F 37.0 °F 89% 29.75 in 5.0 mi WSW 13.8 mph 23.0 mph 0.02 in Rain Light Rain
8:53 PM 39.9 °F 36.7 °F 37.0 °F 89% 29.74 in 10.0 mi West 4.6 mph - 0.05 in   Mostly Cloudy
9:53 PM 39.0 °F 34.8 °F 37.0 °F 93% 29.75 in 10.0 mi ESE 5.8 mph - 0.07 in   Overcast
10:53 PM 39.2 °F - 37.4 °F 93% 29.77 in 10.0 mi Calm Calm - N/A   Clear
11:53 PM 39.9 °F 37.8 °F 37.9 °F 93% 29.75 in 10.0 mi SSE 3.5 mph - 0.00 in Rain Light Rain